#timestamp,LO_Frequency,Hit,StdDev 
1640372415.5,286046999.6,N
1640372435.3,286047000.8,N
1640372455.2,286047001.8,N
1640372475.0,286047003.1,N
1640372475.9,286047003.1,N
1640372495.7,286047000.8,N
1640372515.6,286047001.0,N
1640372535.4,286046998.7,N
1640372555.3,286046998.2,N
1640372575.1,286047001.6,N
1640372595.8,286046995.2,N
1640372615.7,286046993.6,N
1640372635.5,286046993.8,N
1640372655.3,286046993.5,N
1640372675.2,286046997.6,N
1640372695.0,286046993.8,N
1640372695.9,286046993.8,N
1640372715.8,286046992.4,N
1640372735.6,286046995.4,N
1640372755.4,286046996.4,N
1640372775.3,286046994.8,N
1640372795.1,286046993.1,N
1640372815.9,286046993.3,N
1640372835.7,286046988.5,N
1640372855.5,286046992.6,N
1640372875.4,286046994.7,N
1640372895.2,286046996.1,N
1640372915.0,286046995.9,N
1640372916.0,286046995.9,N
1640372935.8,286046998.7,N
1640372955.6,286047004.1,N
1640372975.5,286047006.0,N
1640372995.3,286047004.3,N
1640373015.1,286047003.0,N
1640373035.9,286047008.4,N
1640373055.7,286047010.0,N
1640373075.6,286047012.3,N
1640373095.4,286047009.6,N
1640373115.2,286047008.0,N
1640373135.1,286047007.0,N
1640373136.0,286047007.0,N
1640373155.8,286047003.4,N
1640373175.7,286047003.4,N
1640373195.5,286047009.2,N
1640373215.3,286047005.8,N
1640373235.2,286047008.3,N
1640373255.0,286047012.7,N
1640373255.9,286047012.7,N
1640373275.7,286047013.6,N
1640373295.6,286047009.1,N
1640373315.4,286047009.0,N
1640373335.3,286047007.9,N
1640373355.1,286047007.6,N
1640373375.8,286047005.4,N
1640373395.7,286047001.8,N
1640373415.5,286047005.8,N
1640373435.4,286047008.2,N
1640373455.2,286047006.1,N
1640373475.0,286047011.5,N
1640373475.9,286047011.5,Y
1640373495.8,286047002.6,P
1640373515.6,286047004.5,N
1640373535.4,286047003.0,N
1640373555.3,286047001.6,N
1640373575.1,286047008.3,Y
1640373595.9,286047008.9,P
1640373615.7,286047010.7,P
1640373635.5,286047005.5,N
1640373655.4,286047005.9,N
1640373675.2,286047005.6,N
1640373695.0,286047004.1,N
1640373695.9,286047004.1,N
1640373715.8,286047000.3,N
1640373735.6,286046994.9,N
1640373755.5,286046993.8,N
1640373775.3,286046996.9,N
1640373795.1,286046997.6,N
1640373815.9,286046996.5,N
1640373835.7,286047002.1,N
1640373855.5,286047004.0,N
1640373875.4,286047003.3,N
1640373895.2,286047000.0,N
1640373915.1,286047001.2,N
1640373916.0,286047001.2,N
1640373935.8,286047000.3,N
1640373955.6,286046998.4,N
1640373975.5,286046999.7,N
1640373995.3,286047004.0,N
1640374015.1,286047009.0,N
1640374035.9,286047012.2,N
1640374055.7,286047009.5,N
1640374075.6,286047005.4,N
1640374095.4,286046999.2,N
1640374115.2,286046996.8,N
1640374135.1,286046998.6,N
1640374136.0,286046998.6,N
1640374155.8,286047000.5,N
1640374175.7,286047002.3,N
1640374195.5,286047001.5,N
1640374215.3,286046999.6,N
1640374235.2,286046997.8,N
1640374255.0,286046996.8,N
1640374255.9,286046996.8,N
1640374275.8,286046995.0,N
1640374295.6,286047002.5,N
1640374315.4,286047007.6,N
1640374335.3,286047004.8,N
1640374355.1,286047000.4,N
1640374375.8,286046994.9,N
1640374395.7,286046999.5,N
1640374415.5,286047004.2,N
1640374435.4,286047001.6,N
1640374455.2,286047000.4,N
1640374475.0,286046995.3,N
1640374475.9,286046995.3,N
1640374495.8,286046991.7,N
1640374515.6,286046992.7,N
1640374535.4,286046998.0,N
1640374555.3,286046996.9,N
1640374575.1,286047002.3,N
1640374595.9,286047005.0,N
1640374615.7,286047009.0,N
1640374635.5,286047001.6,N
1640374655.4,286047001.5,N
1640374675.2,286047003.4,N
1640374695.0,286047002.6,N
1640374695.9,286047002.6,N
1640374715.8,286047003.2,N
1640374735.6,286047005.6,N
1640374755.5,286047004.2,N
1640374775.3,286047003.6,N
1640374795.1,286047003.8,N
1640374815.9,286047000.8,N
1640374835.7,286047001.6,N
1640374855.5,286047002.8,N
1640374875.4,286046999.1,N
1640374895.2,286046999.4,N
1640374915.1,286047002.1,N
1640374916.0,286047002.1,N
1640374935.8,286047004.1,N
1640374955.6,286047004.1,N
1640374975.5,286047004.3,N
1640374995.3,286047005.9,N
1640375015.1,286047007.2,N
1640375035.9,286047008.8,N
1640375055.7,286047010.8,N
1640375075.6,286047006.5,N
1640375095.4,286047008.3,N
1640375115.2,286047010.8,Y
1640375135.1,286047010.8,P
1640375136.0,286047010.8,P
1640375155.8,286047011.9,P
1640375175.7,286047013.9,Y
1640375195.5,286047003.6,P
1640375215.3,286047001.4,N
1640375235.2,286046999.1,N
1640375255.0,286046993.7,N
1640375255.9,286046993.7,N
1640375275.7,286046990.5,N
1640375295.6,286046993.5,N
1640375315.4,286046995.9,N
1640375335.3,286046990.4,N
1640375355.1,286046989.3,N
1640375356.0,286046989.3,N
1640375375.8,286046990.7,N
1640375395.7,286046995.2,N
1640375415.5,286046995.2,N
1640375435.4,286046995.0,N
1640375455.2,286046993.0,N
1640375475.0,286046988.4,N
1640375475.9,286046988.4,N
1640375495.8,286046985.6,N
1640375515.6,286046987.4,N
1640375535.4,286046987.7,N
1640375555.3,286046982.5,Y
1640375575.1,286046988.3,P
1640375595.9,286046989.7,P
1640375615.7,286046987.0,P
1640375635.5,286046990.3,Y
1640375655.4,286046999.6,P
1640375675.2,286046996.0,N
1640375695.0,286046990.1,N
1640375695.9,286046990.1,N
1640375715.8,286046995.9,N
1640375735.6,286046992.3,N
1640375755.5,286047001.1,N
1640375775.3,286047001.0,N
1640375795.1,286047002.0,N
1640375815.9,286046997.1,N
1640375835.7,286046998.8,N
1640375855.5,286047003.9,N
1640375875.4,286046997.8,N
1640375895.2,286046993.7,N
1640375915.1,286047000.7,N
1640375916.0,286047000.7,N
1640375935.8,286046998.7,N
1640375955.6,286046994.5,N
1640375975.5,286046991.3,N
1640375995.3,286046988.6,N
